This is the latest recevied weather packets stored in our database for station/object W8MRL. If no packets are shown the sender has not sent any weather packets the latest 10 day(s).
| Time | Temp. | Humidity | Pressure | Rain* | Wind** | Luminosity | Snow |
|---|---|---|---|---|---|---|---|
| 1777850154 | 15.56° C | 47% | 1016.7 hPa | 0 mm | - | - | - |
| 1777849261 | 15.56° C | 47% | 1017 hPa | 0 mm | - | - | - |
| 1777848358 | 15.56° C | 46% | 1017.5 hPa | 0 mm | - | - | - |
| 1777847448 | 16.11° C | 45% | 1017.7 hPa | 0 mm | - | - | - |
| 1777846558 | 16.67° C | 45% | 1018.1 hPa | 0 mm | - | - | - |
| 1777845646 | 16.67° C | 47% | 1018.1 hPa | 0 mm | - | - | - |
| 1777844745 | 16.67° C | 44% | 1018.3 hPa | 0 mm | - | - | - |
| 1777843846 | 15.56° C | 47% | 1018.4 hPa | 0 mm | - | - | - |
| 1777842943 | 15° C | 48% | 1018.6 hPa | 0 mm | - | - | - |
| 1777842041 | 14.44° C | 47% | 1018.9 hPa | 0 mm | - | - | - |
| 1777841138 | 15° C | 45% | 1019.5 hPa | 0 mm | - | - | - |
| 1777840239 | 15° C | 46% | 1019.9 hPa | 0 mm | - | - | - |
| 1777839337 | 15° C | 45% | 1019.7 hPa | 0 mm | - | - | - |
| 1777838436 | 15.56° C | 44% | 1019.6 hPa | 0 mm | - | - | - |
| 1777837538 | 16.11° C | 43% | 1019.6 hPa | 0 mm | - | - | - |
| 1777836643 | 16.67° C | 44% | 1020 hPa | 0 mm | - | - | - |
| 1777835760 | 16.67° C | 42% | 1020.3 hPa | 0 mm | - | - | - |
| 1777834834 | 16.67° C | 43% | 1020.5 hPa | 0 mm | - | - | - |
| 1777833927 | 16.67° C | 43% | 1020.7 hPa | 0 mm | - | - | - |
| 1777833026 | 16.67° C | 44% | 1020.9 hPa | 0 mm | - | - | - |
| 1777832130 | 16.67° C | 43% | 1021.1 hPa | 0 mm | - | - | - |
| 1777831226 | 16.67° C | 44% | 1021.4 hPa | 0 mm | - | - | - |
| 1777830321 | 16.67° C | 41% | 1021.4 hPa | 0 mm | - | - | - |
| 1777829418 | 16.67° C | 44% | 1021.7 hPa | 0 mm | - | - | - |
| 1777828516 | 16.11° C | 45% | 1022 hPa | 0 mm | - | - | - |
* Rain latest hour (hover to see other rain measurements)
** Current wind speed in m/s (hover to see current wind gust speed)